When you browse on this site, cookies collect data to enhance your experience and personalize the content and advertising you see.
Visit our Privacy Policy to learn more. By continuing to use the site, you agree to this use of cookies and data.
EN

Hourly Weather Godziszow

Today, 27 September, Sunday

Time Temperature Precipitation Wind Pressure Humidity
00:00 +8°C° 0 mm 2 mps 720 mmHg 82%
01:00 +8°C° 0 mm 2 mps 721 mmHg 82%
02:00 +7°C° 0 mm 2 mps 721 mmHg 83%
03:00 +7°C° 0 mm 2 mps 721 mmHg 84%
04:00 +7°C° 0 mm 2 mps 721 mmHg 85%
05:00 +7°C° 0 mm 3 mps 721 mmHg 84%
06:00 +7°C° 0 mm 3 mps 722 mmHg 83%
07:00 +8°C° 0 mm 3 mps 722 mmHg 82%
08:00 +9°C° 0 mm 3 mps 723 mmHg 77%
09:00 +10°C° 0 mm 4 mps 723 mmHg 72%
10:00 +11°C° 0 mm 4 mps 723 mmHg 67%
11:00 +12°C° 0 mm 5 mps 724 mmHg 65%
12:00 +12°C° 0 mm 5 mps 724 mmHg 63%
13:00 +13°C° 0 mm 6 mps 725 mmHg 61%
14:00 +13°C° 0 mm 5 mps 725 mmHg 61%
15:00 +13°C° 0 mm 5 mps 725 mmHg 62%
16:00 +13°C° 0 mm 4 mps 725 mmHg 62%
17:00 +11°C° 0 mm 4 mps 726 mmHg 67%
18:00 +10°C° 0 mm 3 mps 726 mmHg 73%
19:00 +9°C° 0 mm 2 mps 727 mmHg 78%
20:00 +8°C° 0 mm 2 mps 727 mmHg 78%
21:00 +8°C° 0 mm 2 mps 728 mmHg 78%
22:00 +8°C° 0 mm 2 mps 729 mmHg 78%
23:00 +7°C° 0 mm 2 mps 729 mmHg 79%

Tomorrow, 28 September, Monday

Time Temperature Precipitation Wind Pressure Humidity
00:00 +7°C° 0 mm 2 mps 729 mmHg 79%
01:00 +7°C° 0 mm 2 mps 729 mmHg 79%
02:00 +7°C° 0 mm 2 mps 728 mmHg 77%
03:00 +8°C° 0 mm 2 mps 728 mmHg 75%
04:00 +8°C° 0 mm 2 mps 728 mmHg 73%
05:00 +9°C° 0 mm 1 mps 728 mmHg 71%
06:00 +10°C° 0 mm 1 mps 728 mmHg 69%
07:00 +10°C° 0 mm 1 mps 728 mmHg 67%
08:00 +11°C° 0 mm 1 mps 728 mmHg 66%
09:00 +12°C° 0 mm 1 mps 728 mmHg 65%
10:00 +12°C° 0 mm 1 mps 728 mmHg 64%
11:00 +12°C° 0.4 mm 1 mps 728 mmHg 70%
12:00 +12°C° 0.4 mm 1 mps 728 mmHg 76%
13:00 +11°C° 0.4 mm 0 mps 728 mmHg 82%
14:00 +12°C° 0.3 mm 1 mps 728 mmHg 83%
15:00 +12°C° 0.3 mm 1 mps 728 mmHg 85%
16:00 +12°C° 0.3 mm 1 mps 728 mmHg 86%
17:00 +11°C° 0 mm 0 mps 728 mmHg 88%
18:00 +10°C° 0 mm 0 mps 728 mmHg 89%
19:00 +10°C° 0 mm 0 mps 729 mmHg 91%
20:00 +10°C° 0 mm 0 mps 729 mmHg 91%
21:00 +9°C° 0 mm 0 mps 729 mmHg 91%
22:00 +9°C° 0 mm 0 mps 729 mmHg 92%
23:00 +9°C° 0 mm 0 mps 729 mmHg 92%

Day after tomorrow, 29 September, Tuesday

Time Temperature Precipitation Wind Pressure Humidity
00:00 +9°C° 0 mm 0 mps 729 mmHg 92%
01:00 +9°C° 0 mm 0 mps 730 mmHg 92%
02:00 +10°C° 0.3 mm 0 mps 730 mmHg 92%
03:00 +10°C° 0.3 mm 0 mps 730 mmHg 93%
04:00 +10°C° 0.3 mm 0 mps 730 mmHg 94%
05:00 +10°C° 0.3 mm 0 mps 730 mmHg 94%
06:00 +11°C° 0.3 mm 1 mps 730 mmHg 93%
07:00 +11°C° 0.3 mm 1 mps 730 mmHg 93%
08:00 +12°C° 0.1 mm 1 mps 731 mmHg 90%
09:00 +13°C° 0.1 mm 1 mps 731 mmHg 86%
10:00 +13°C° 0.1 mm 1 mps 731 mmHg 83%
11:00 +14°C° 0 mm 1 mps 731 mmHg 80%
12:00 +15°C° 0 mm 1 mps 731 mmHg 77%
13:00 +15°C° 0 mm 2 mps 731 mmHg 74%
14:00 +15°C° 0 mm 2 mps 731 mmHg 74%
15:00 +15°C° 0 mm 2 mps 731 mmHg 75%
16:00 +15°C° 0 mm 2 mps 731 mmHg 76%
17:00 +14°C° 0 mm 1 mps 731 mmHg 80%
18:00 +13°C° 0 mm 1 mps 731 mmHg 84%
19:00 +12°C° 0 mm 1 mps 731 mmHg 88%
20:00 +12°C° 0 mm 1 mps 731 mmHg 87%
21:00 +12°C° 0 mm 1 mps 731 mmHg 86%
22:00 +12°C° 0 mm 1 mps 732 mmHg 86%
23:00 +12°C° 0 mm 1 mps 731 mmHg 86%

30 September, Wednesday

Time Temperature Precipitation Wind Pressure Humidity
00:00 +12°C° 0 mm 1 mps 731 mmHg 86%
01:00 +12°C° 0 mm 1 mps 731 mmHg 86%
02:00 +12°C° 0 mm 1 mps 731 mmHg 86%
03:00 +12°C° 0 mm 1 mps 731 mmHg 86%
04:00 +12°C° 0 mm 1 mps 731 mmHg 86%
05:00 +12°C° 0 mm 1 mps 731 mmHg 86%
06:00 +12°C° 0 mm 1 mps 730 mmHg 86%
07:00 +12°C° 0 mm 1 mps 730 mmHg 86%
08:00 +12°C° 0 mm 2 mps 730 mmHg 85%
09:00 +13°C° 0 mm 2 mps 730 mmHg 83%
10:00 +13°C° 0 mm 2 mps 730 mmHg 82%
11:00 +13°C° 0.1 mm 2 mps 729 mmHg 83%
12:00 +13°C° 0.1 mm 2 mps 729 mmHg 83%
13:00 +13°C° 0.1 mm 2 mps 729 mmHg 84%
14:00 +13°C° 0.1 mm 2 mps 728 mmHg 84%
15:00 +13°C° 0.1 mm 2 mps 728 mmHg 84%
16:00 +13°C° 0.1 mm 2 mps 728 mmHg 84%
17:00 +13°C° 0.1 mm 2 mps 728 mmHg 86%
18:00 +13°C° 0.1 mm 2 mps 728 mmHg 88%
19:00 +12°C° 0.1 mm 2 mps 728 mmHg 90%
20:00 +13°C° 0.2 mm 2 mps 727 mmHg 91%
21:00 +13°C° 0.2 mm 2 mps 727 mmHg 92%
22:00 +12°C° 0.2 mm 3 mps 727 mmHg 93%
23:00 +12°C° 0.8 mm 3 mps 726 mmHg 93%

1 October, Thursday

Time Temperature Precipitation Wind Pressure Humidity
00:00 +12°C° 0.8 mm 3 mps 726 mmHg 93%
01:00 +12°C° 0.8 mm 3 mps 726 mmHg 93%
02:00 +12°C° 2.2 mm 3 mps 725 mmHg 93%
03:00 +11°C° 2.2 mm 3 mps 725 mmHg 94%
04:00 +11°C° 2.2 mm 3 mps 725 mmHg 95%
05:00 +11°C° 2.7 mm 3 mps 725 mmHg 95%
06:00 +11°C° 2.7 mm 3 mps 725 mmHg 96%
07:00 +11°C° 2.7 mm 3 mps 725 mmHg 96%
08:00 +11°C° 1.8 mm 3 mps 725 mmHg 96%
09:00 +11°C° 1.8 mm 3 mps 725 mmHg 96%
10:00 +12°C° 1.8 mm 2 mps 724 mmHg 96%
11:00 +12°C° 2 mm 2 mps 724 mmHg 96%
12:00 +12°C° 2 mm 2 mps 724 mmHg 96%
13:00 +12°C° 2 mm 2 mps 724 mmHg 97%
14:00 +12°C° 0.8 mm 2 mps 724 mmHg 97%
15:00 +12°C° 0.8 mm 1 mps 724 mmHg 97%
16:00 +12°C° 0.8 mm 1 mps 724 mmHg 97%
17:00 +12°C° 0.3 mm 1 mps 724 mmHg 97%
18:00 +12°C° 0.3 mm 1 mps 724 mmHg 97%
19:00 +12°C° 0.3 mm 1 mps 724 mmHg 97%
20:00 +12°C° 0.6 mm 1 mps 724 mmHg 97%
21:00 +12°C° 0.6 mm 1 mps 723 mmHg 97%
22:00 +12°C° 0.6 mm 1 mps 723 mmHg 97%
23:00 +12°C° 1.3 mm 2 mps 723 mmHg 97%

2 October, Friday

Time Temperature Precipitation Wind Pressure Humidity
00:00 +12°C° 1.3 mm 2 mps 723 mmHg 96%
01:00 +12°C° 1.3 mm 2 mps 723 mmHg 96%
02:00 +12°C° 0.8 mm 2 mps 723 mmHg 95%
03:00 +12°C° 0.8 mm 2 mps 723 mmHg 95%
04:00 +12°C° 0.8 mm 2 mps 723 mmHg 94%
05:00 +12°C° 0.2 mm 2 mps 723 mmHg 93%
06:00 +12°C° 0.2 mm 2 mps 723 mmHg 93%
07:00 +12°C° 0.2 mm 2 mps 723 mmHg 92%
08:00 +13°C° 0.1 mm 2 mps 723 mmHg 91%
09:00 +13°C° 0.1 mm 2 mps 723 mmHg 89%
10:00 +13°C° 0.1 mm 3 mps 723 mmHg 87%
11:00 +14°C° 0.1 mm 3 mps 723 mmHg 81%
12:00 +15°C° 0.1 mm 4 mps 723 mmHg 75%
13:00 +18°C° 0.1 mm 4 mps 723 mmHg 69%
14:00 +18°C° 0.1 mm 4 mps 723 mmHg 70%
15:00 +17°C° 0.1 mm 3 mps 723 mmHg 71%
16:00 +17°C° 0.1 mm 2 mps 723 mmHg 72%
17:00 +16°C° 0 mm 2 mps 723 mmHg 77%
18:00 +15°C° 0 mm 2 mps 723 mmHg 81%
19:00 +13°C° 0 mm 2 mps 722 mmHg 86%
20:00 +13°C° 0 mm 2 mps 722 mmHg 86%
21:00 +13°C° 0 mm 2 mps 722 mmHg 85%
22:00 +13°C° 0 mm 2 mps 722 mmHg 85%
23:00 +13°C° 0 mm 2 mps 722 mmHg 86%
Show more